Find OneWeb SL0395

NORAD ID: 50475 Int'l Des: 2021-132 Owner: ONEWEBN Country: UK Constellation: oneweb operational
LEOCIRCULARPOLARONEWEB_TYPE

リアルタイム位置

3D地球を読み込み中...

OneWeb SL0395について

説明を読み込み中...

次回通過

Passes for default location (London). Set your location on the main map for personalized predictions.

高度履歴

Loading altitude history...

軌道要素

1 50475U 21132G 26126.73786957 -.00000254 00000-0 -75145-3 0 9997
2 50475 87.8915 29.3123 0001586 85.8897 274.2412 13.11412711210283
Epoch: May 6, 2026 • Age: 14 hours

現在のステータス

高度 1221.7 km
速度 7.24 km/s
衛星直下点 -5.57°S, 127.79°W
打ち上げ日 Dec 27, 2021
運用期間 4.3 years
タイプ internet

技術仕様

分類 Payload
質量 148.00 kg
乾燥質量 140.00 kg
総質量 148.00 kg
長さ 1.30 m
直径 1.00 m
スパン 5.00 m
形状 Trapezoid+2 pan
製造者 ONEWUS
バスタイプ ARROW
フェーズステータス In Orbit
所有者/国 ONEWEBN/UK

Most Searched